Regional Weather Roundup
Issued by NWS

Home | Current Version | Previous Version | Graphics & Text | Print | Product List | Glossary On
Versions: 1 2 3 4 5 6 7 8 9 10 11 12 13 14 15 16 17 18 19 20 21 22 23 24 25 26 27 28 29 30 31 32 33 34 35 36 37 38 39 40 41 42 43 44 45 46 47 48 49 50
126
ASUS44 KLIX 302001
RWRLA
LOUISIANA WEATHER ROUNDUP
NATIONAL WEATHER SERVICE NEW ORLEANS LA
300 PM CDT WED JUL 30 2014

NOTE: "FAIR" INDICATES FEW OR NO CLOUDS BELOW 12,000 FEET WITH NO
      SIGNIFICANT WEATHER AND/OR OBSTRUCTIONS TO VISIBILITY.
      SKY/WX - SKY CONDITION AND SIGNIFICANT WEATHER.
      TMP - AIR TEMPERATURE.    DP   - DEWPOINT TEMPERATURE.
      RH  - RELATIVE HUMIDITY.  PRES - PRESSURE.
      HX  - HEAT INDEX.         WCI  - WIND CHILL INDEX.

*  THESE STATIONS ARE NOT NWS OR FAA STATIONS AND ARE NOT UNDER
   NWS QUALITY CONTROL.

LAZ040-048-061>063-065-066-069-302100-
SOUTHEAST LOUISIANA

CITY           SKY/WX    TMP DP  RH WIND       PRES   REMARKS
N.O. AUDUBON     N/A     90  63  39 MISG        N/A
N.O. INTL ARPT MOSUNNY   86  61  42 N14       30.03F
N.O. LAKEFRONT SUNNY     83  63  50 W7        30.03F
N.O. DOWNTOWN* FAIR      86  59  39 NW8       30.03F
SLIDELL        SUNNY     86  59  39 VRB5      30.02F
BATON ROUGE    SUNNY     86  61  42 MISG      30.03F
BOOTHVILLE     SUNNY     84  69  60 VRB5      30.03F
BELLE CHASSE   MOSUNNY   87  58  37 VRB7      30.02F
BOGALUSA*        N/A     85  57  38 CALM      30.05F
GALLIANO*      NOT AVBL
NEW ROADS*     FAIR      84  63  48 NW6       30.04F
GONZALES*      FAIR      86  63  45 NW7       30.02F
HAMMOND*       SUNNY     88  57  35 N8        30.05S
HOUMA*         MOSUNNY   88  63  42 N7        30.01F
PORT FOURCHON* MOCLDY    84  70  61 S7        30.03F

$$

LAZ041-044-053-054-302100-
SOUTHWEST LOUISIANA

CITY           SKY/WX    TMP DP  RH WIND       PRES   REMARKS
LAKE CHARLES   MOSUNNY   89  66  46 VRB3      30.02F
LAFAYETTE      SUNNY     89  65  44 MISG      30.02F
PATTERSON      SUNNY     88  70  55 NW6       30.06F
SALT POINT       N/A     89  70  53 VRB6      30.02F
NEW IBERIA     SUNNY     89  66  46 MISG      30.03F
CHENAULT AIRPK MOSUNNY   88  64  45 CALM      30.04F

$$

LAZ027-028-302100-
CENTRAL LOUISIANA

CITY           SKY/WX    TMP DP  RH WIND       PRES   REMARKS
FORT POLK      SUNNY     88  61  40 CALM      30.04F
ALEXANDRIA INT SUNNY     89  58  34 E5        30.02F
ALEXANDRIA     SUNNY     88  61  40 N5G16     30.05F

$$

LAZ001-002-302100-
NORTHWEST LOUISIANA

CITY           SKY/WX    TMP DP  RH WIND       PRES   REMARKS
SHREVEPORT     PTSUNNY   87  57  35 CALM      30.05F
BARKSDALE AFB  PTSUNNY   86  60  42 E6        30.06F
DTN SHREVEPORT PTSUNNY   85  58  39 E3        30.06F

$$

LAZ014-016-302100-
NORTHEAST LOUISIANA

CITY           SKY/WX    TMP DP  RH WIND       PRES   REMARKS
MONROE         MOSUNNY   87  61  41 N7        30.07F
TALLULAH       SUNNY     85  58  39 VRB7      30.06F

$$




USA.gov is the U.S. government's official web portal to all federal, state and local government web resources and services.